RYR9SP EPGD-LZIB

Flight info

Callsign RYR9SP
Flight time 1h 4m
Altitude 35000
Route IRLUN N133 GRUDA DCT UPKIS T720 REGLI DCT MAVOR P10 BERVA
Aircraft B738/M-SDE1E2E3FGIJ1LRWY/SB1

Departure

Time 2026-05-01 10:36
Airport Gdańsk Lech Wałęsa Airport (EPGD)

Arrival

Time 2026-05-01 11:40
Airport M. R. Štefánik Airport (LZIB)
Time Latitude Longitude Altitude Speed Heading
2026-05-01 10:07 54.38143 18.46501 457 ft 0 kts 23°
2026-05-01 10:27 54.38126 18.46487 456 ft 4 kts 42°
2026-05-01 10:28 54.38113 18.46452 458 ft 4 kts 85°
2026-05-01 10:28 54.38114 18.46423 458 ft 1 kts 113°
2026-05-01 10:30 54.38073 18.46588 458 ft 10 kts 113°
2026-05-01 10:31 54.37959 18.46588 457 ft 9 kts 162°
2026-05-01 10:31 54.37899 18.46771 458 ft 12 kts 113°
2026-05-01 10:32 54.37812 18.47122 457 ft 17 kts 113°
2026-05-01 10:32 54.37768 18.47302 458 ft 16 kts 113°
2026-05-01 10:32 54.37683 18.47641 464 ft 15 kts 113°
2026-05-01 10:33 54.37586 18.48035 470 ft 22 kts 113°
2026-05-01 10:33 54.37468 18.48509 482 ft 23 kts 112°
2026-05-01 10:34 54.37405 18.48766 485 ft 23 kts 112°
2026-05-01 10:34 54.37344 18.49012 486 ft 21 kts 113°
2026-05-01 10:34 54.37290 18.49226 493 ft 16 kts 117°
2026-05-01 10:35 54.37154 18.49092 488 ft 14 kts 266°
2026-05-01 10:35 54.37206 18.48848 490 ft 47 kts 293°
2026-05-01 10:35 54.37440 18.47902 469 ft 124 kts 293°
2026-05-01 10:35 54.37853 18.46225 580 ft 173 kts 293°
2026-05-01 10:36 54.38779 18.42470 2343 ft 182 kts 294°
2026-05-01 10:36 54.39314 18.40276 2737 ft 215 kts 291°
2026-05-01 10:36 54.39879 18.37830 3396 ft 224 kts 296°
2026-05-01 10:37 54.40507 18.35389 4268 ft 226 kts 296°
2026-05-01 10:37 54.40364 18.30078 6084 ft 246 kts 240°
2026-05-01 10:37 54.39124 18.27979 6871 ft 260 kts 211°
2026-05-01 10:38 54.37377 18.27149 7655 ft 265 kts 178°
2026-05-01 10:38 54.35574 18.27700 8542 ft 264 kts 161°
2026-05-01 10:38 54.33783 18.28654 9177 ft 280 kts 159°
2026-05-01 10:38 54.31845 18.29746 9605 ft 302 kts 159°
2026-05-01 10:39 54.29826 18.30894 10387 ft 308 kts 159°
2026-05-01 10:39 54.27747 18.32078 10930 ft 326 kts 159°
2026-05-01 10:39 54.25520 18.33350 11314 ft 345 kts 159°
2026-05-01 10:39 54.23209 18.34661 12023 ft 354 kts 159°
2026-05-01 10:40 54.20848 18.35996 12809 ft 360 kts 158°
2026-05-01 10:40 54.18458 18.37342 13671 ft 363 kts 158°
2026-05-01 10:40 54.16042 18.38701 14443 ft 369 kts 158°
2026-05-01 10:40 54.13588 18.40065 15180 ft 374 kts 160°
2026-05-01 10:41 54.11003 18.40902 15884 ft 383 kts 172°
2026-05-01 10:41 54.08313 18.40920 16630 ft 390 kts 180°
2026-05-01 10:41 54.02829 18.40338 18048 ft 400 kts 181°
2026-05-01 10:42 54.00035 18.40013 18735 ft 405 kts 181°
2026-05-01 10:42 53.97210 18.39683 19372 ft 409 kts 181°
2026-05-01 10:42 53.94363 18.39354 20007 ft 412 kts 181°
2026-05-01 10:42 53.91489 18.39027 20639 ft 416 kts 181°
2026-05-01 10:43 53.88588 18.38700 21258 ft 419 kts 181°
2026-05-01 10:43 53.85664 18.38375 21879 ft 423 kts 181°
2026-05-01 10:43 53.82716 18.38048 22503 ft 426 kts 180°
2026-05-01 10:43 53.79746 18.37720 23118 ft 429 kts 180°
2026-05-01 10:44 53.76752 18.37390 23701 ft 433 kts 180°
2026-05-01 10:44 53.73730 18.37059 24210 ft 437 kts 180°
2026-05-01 10:44 53.70684 18.36725 24709 ft 440 kts 180°
2026-05-01 10:44 53.67621 18.36389 25223 ft 442 kts 181°
2026-05-01 10:45 53.64545 18.36052 25720 ft 444 kts 181°
2026-05-01 10:45 53.61452 18.35713 26202 ft 447 kts 181°
2026-05-01 10:45 53.58338 18.35374 26673 ft 450 kts 180°
2026-05-01 10:45 53.55213 18.35033 27163 ft 451 kts 180°
2026-05-01 10:46 53.52067 18.34691 27621 ft 454 kts 180°
2026-05-01 10:46 53.48905 18.34347 28060 ft 457 kts 181°
2026-05-01 10:46 53.45723 18.34002 28491 ft 460 kts 181°
2026-05-01 10:46 53.42520 18.33656 28921 ft 463 kts 180°
2026-05-01 10:47 53.39286 18.33307 29250 ft 468 kts 181°
2026-05-01 10:47 53.36071 18.32960 29655 ft 470 kts 181°
2026-05-01 10:47 53.32759 18.32603 30095 ft 472 kts 180°
2026-05-01 10:47 53.29519 18.32253 30486 ft 474 kts 180°
2026-05-01 10:48 53.26222 18.31899 30831 ft 475 kts 180°
2026-05-01 10:48 53.22879 18.31539 31275 ft 474 kts 181°
2026-05-01 10:48 53.19637 18.31190 31758 ft 472 kts 181°
2026-05-01 10:48 53.16365 18.30838 32212 ft 470 kts 181°
2026-05-01 10:49 53.13103 18.30489 32630 ft 470 kts 181°
2026-05-01 10:49 53.09839 18.30141 33026 ft 470 kts 181°
2026-05-01 10:49 53.06582 18.29794 33463 ft 468 kts 181°
2026-05-01 10:49 53.03333 18.29449 33920 ft 467 kts 181°
2026-05-01 10:50 53.00097 18.29105 34329 ft 466 kts 181°
2026-05-01 10:50 52.96865 18.28763 34669 ft 465 kts 181°
2026-05-01 10:50 52.93641 18.28421 35025 ft 464 kts 181°
2026-05-01 10:50 52.91470 18.28192 35277 ft 463 kts 181°
2026-05-01 10:51 52.88241 18.27852 35348 ft 468 kts 181°
2026-05-01 10:51 52.80683 18.27058 35350 ft 466 kts 181°
2026-05-01 10:52 52.74220 18.26376 35359 ft 461 kts 181°
2026-05-01 10:52 52.68896 18.25819 35368 ft 462 kts 181°
2026-05-01 10:53 52.62477 18.25151 35368 ft 463 kts 181°
2026-05-01 10:53 52.56041 18.24482 35368 ft 464 kts 181°
2026-05-01 10:54 52.49591 18.23812 35376 ft 465 kts 180°
2026-05-01 10:54 52.43119 18.23142 35363 ft 466 kts 180°
2026-05-01 10:55 52.36684 18.22478 35360 ft 467 kts 180°
2026-05-01 10:55 52.30196 18.21810 35362 ft 467 kts 180°
2026-05-01 10:56 52.23707 18.21145 35362 ft 467 kts 180°
2026-05-01 10:56 52.17215 18.20480 35362 ft 467 kts 180°
2026-05-01 10:57 52.10734 18.19819 35353 ft 467 kts 180°
2026-05-01 10:57 52.04259 18.19161 35362 ft 466 kts 180°
2026-05-01 10:58 51.97796 18.18505 35357 ft 465 kts 180°
2026-05-01 10:58 51.91337 18.17853 35360 ft 465 kts 180°
2026-05-01 10:59 51.84888 18.17203 35362 ft 464 kts 180°
2026-05-01 10:59 51.78443 18.16555 35358 ft 464 kts 180°
2026-05-01 11:00 51.72000 18.15909 35357 ft 464 kts 180°
2026-05-01 11:00 51.65558 18.15265 35360 ft 464 kts 180°
2026-05-01 11:01 51.59119 18.14624 35369 ft 464 kts 180°
2026-05-01 11:01 51.52663 18.13983 35365 ft 465 kts 180°
2026-05-01 11:02 51.46196 18.13342 35361 ft 466 kts 180°
2026-05-01 11:02 51.39719 18.12702 35357 ft 467 kts 180°
2026-05-01 11:03 51.33235 18.12063 35355 ft 468 kts 180°
2026-05-01 11:03 51.26736 18.11425 35351 ft 468 kts 180°
2026-05-01 11:04 51.20230 18.10787 35351 ft 468 kts 180°
2026-05-01 11:04 51.13726 18.10151 35355 ft 468 kts 180°
2026-05-01 11:05 51.07221 18.09517 35351 ft 468 kts 180°
2026-05-01 11:05 51.00726 18.08886 35346 ft 467 kts 180°
2026-05-01 11:06 50.94239 18.08258 35344 ft 467 kts 180°
2026-05-01 11:06 50.87761 18.07632 35348 ft 466 kts 180°
2026-05-01 11:07 50.78054 18.06697 35349 ft 465 kts 180°
2026-05-01 11:07 50.71591 18.06077 35353 ft 466 kts 179°
2026-05-01 11:08 50.65119 18.05458 35355 ft 466 kts 179°
2026-05-01 11:09 50.55441 18.04536 35357 ft 467 kts 179°
2026-05-01 11:09 50.48948 18.03919 35353 ft 468 kts 179°
2026-05-01 11:10 50.39231 18.02997 34957 ft 462 kts 179°
2026-05-01 11:10 50.36048 18.02693 34635 ft 456 kts 179°
2026-05-01 11:10 50.32888 18.02394 34263 ft 453 kts 179°
2026-05-01 11:11 50.29751 18.02099 33855 ft 450 kts 179°
2026-05-01 11:11 50.26634 18.01806 33468 ft 447 kts 179°
2026-05-01 11:11 50.23539 18.01516 33094 ft 444 kts 179°
2026-05-01 11:11 50.20465 18.01228 32727 ft 441 kts 179°
2026-05-01 11:12 50.17411 18.00942 32363 ft 438 kts 179°
2026-05-01 11:12 50.14379 18.00659 32010 ft 435 kts 178°
2026-05-01 11:12 50.11366 18.00378 31653 ft 433 kts 178°
2026-05-01 11:12 50.08369 18.00099 31298 ft 430 kts 178°
2026-05-01 11:13 50.05390 17.99821 30946 ft 428 kts 178°
2026-05-01 11:13 50.02427 17.99435 30592 ft 429 kts 184°
2026-05-01 11:13 49.99503 17.98473 30240 ft 429 kts 190°
2026-05-01 11:13 49.96617 17.97335 29843 ft 426 kts 191°
2026-05-01 11:14 49.93760 17.96168 29468 ft 423 kts 191°
2026-05-01 11:14 49.90926 17.95012 29108 ft 419 kts 191°
2026-05-01 11:14 49.88112 17.93880 28738 ft 417 kts 191°
2026-05-01 11:14 49.85313 17.92773 28377 ft 414 kts 191°
2026-05-01 11:15 49.82530 17.91686 28005 ft 411 kts 190°
2026-05-01 11:15 49.79763 17.90615 27652 ft 409 kts 190°
2026-05-01 11:15 49.77011 17.89555 27290 ft 406 kts 190°
2026-05-01 11:15 49.74275 17.88504 26936 ft 404 kts 190°
2026-05-01 11:16 49.71552 17.87460 26582 ft 402 kts 190°
2026-05-01 11:16 49.68848 17.86425 26239 ft 400 kts 190°
2026-05-01 11:16 49.66150 17.85393 25888 ft 398 kts 190°
2026-05-01 11:16 49.63463 17.84367 25537 ft 397 kts 190°
2026-05-01 11:17 49.60787 17.83345 25178 ft 396 kts 190°
2026-05-01 11:17 49.58117 17.82327 24830 ft 395 kts 190°
2026-05-01 11:17 49.55493 17.81327 24483 ft 394 kts 189°
2026-05-01 11:17 49.52834 17.80316 24109 ft 393 kts 189°
2026-05-01 11:18 49.50182 17.79308 23710 ft 393 kts 189°
2026-05-01 11:18 49.47535 17.78303 23338 ft 391 kts 189°
2026-05-01 11:18 49.44901 17.77303 22964 ft 389 kts 189°
2026-05-01 11:18 49.42283 17.76310 22605 ft 386 kts 189°
2026-05-01 11:19 49.39683 17.75326 22258 ft 384 kts 190°
2026-05-01 11:19 49.37096 17.74348 21903 ft 381 kts 190°
2026-05-01 11:19 49.34527 17.73373 21567 ft 379 kts 189°
2026-05-01 11:19 49.31971 17.72409 21226 ft 377 kts 189°
2026-05-01 11:20 49.29432 17.71429 20865 ft 375 kts 191°
2026-05-01 11:20 49.26912 17.70459 20565 ft 372 kts 190°
2026-05-01 11:20 49.24406 17.69526 20217 ft 370 kts 190°
2026-05-01 11:20 49.21912 17.68603 19887 ft 368 kts 190°
2026-05-01 11:21 49.19433 17.67684 19561 ft 366 kts 190°
2026-05-01 11:21 49.16966 17.66766 19229 ft 364 kts 190°
2026-05-01 11:21 49.14513 17.65852 18893 ft 362 kts 190°
2026-05-01 11:21 49.12065 17.64938 18536 ft 362 kts 190°
2026-05-01 11:22 49.09627 17.64028 18174 ft 360 kts 190°
2026-05-01 11:22 49.07203 17.63122 17824 ft 358 kts 190°
2026-05-01 11:22 49.04789 17.62222 17490 ft 356 kts 190°
2026-05-01 11:22 49.02388 17.61327 17155 ft 354 kts 190°
2026-05-01 11:23 49.00009 17.60441 16826 ft 352 kts 190°
2026-05-01 11:23 48.97637 17.59559 16494 ft 350 kts 190°
2026-05-01 11:23 48.95279 17.58682 16178 ft 348 kts 190°
2026-05-01 11:23 48.92935 17.57812 15853 ft 346 kts 190°
2026-05-01 11:24 48.90597 17.56945 15535 ft 345 kts 191°
2026-05-01 11:24 48.88272 17.56083 15221 ft 343 kts 190°
2026-05-01 11:24 48.83654 17.54375 14595 ft 340 kts 191°
2026-05-01 11:25 48.81343 17.53668 14296 ft 336 kts 181°
2026-05-01 11:25 48.76766 17.53733 13745 ft 326 kts 174°
2026-05-01 11:25 48.74506 17.53835 13433 ft 324 kts 174°
2026-05-01 11:26 48.72255 17.53913 13125 ft 323 kts 174°
2026-05-01 11:26 48.67783 17.54010 12484 ft 320 kts 175°
2026-05-01 11:26 48.65565 17.54045 12174 ft 318 kts 175°
2026-05-01 11:27 48.63362 17.54077 11883 ft 316 kts 175°
2026-05-01 11:27 48.61196 17.54101 11574 ft 315 kts 176°
2026-05-01 11:27 48.58988 17.54047 11292 ft 312 kts 178°
2026-05-01 11:27 48.56853 17.53962 11006 ft 311 kts 178°
2026-05-01 11:28 48.54697 17.53870 10706 ft 309 kts 178°
2026-05-01 11:28 48.52530 17.53781 10245 ft 314 kts 178°
2026-05-01 11:28 48.50352 17.53694 9902 ft 313 kts 178°
2026-05-01 11:29 48.46106 17.53529 9343 ft 307 kts 178°
2026-05-01 11:29 48.43971 17.53450 8985 ft 307 kts 179°
2026-05-01 11:29 48.39732 17.53294 8385 ft 303 kts 179°
2026-05-01 11:30 48.37631 17.53216 8089 ft 300 kts 179°
2026-05-01 11:30 48.35574 17.53139 7784 ft 291 kts 179°
2026-05-01 11:30 48.33574 17.53065 7512 ft 285 kts 179°
2026-05-01 11:30 48.31597 17.52994 7243 ft 283 kts 179°
2026-05-01 11:31 48.29630 17.52923 6978 ft 282 kts 179°
2026-05-01 11:31 48.27676 17.52853 6701 ft 281 kts 179°
2026-05-01 11:31 48.25726 17.52783 6426 ft 280 kts 179°
2026-05-01 11:31 48.23778 17.52713 6131 ft 280 kts 179°
2026-05-01 11:32 48.21832 17.52643 5851 ft 279 kts 180°
2026-05-01 11:32 48.19898 17.52573 5582 ft 277 kts 180°
2026-05-01 11:32 48.17979 17.52503 5327 ft 274 kts 180°
2026-05-01 11:32 48.16095 17.52434 5044 ft 267 kts 180°
2026-05-01 11:33 48.14269 17.52368 4874 ft 257 kts 180°
2026-05-01 11:33 48.12525 17.52304 4757 ft 245 kts 180°
2026-05-01 11:33 48.10881 17.52245 4650 ft 234 kts 180°
2026-05-01 11:33 48.09282 17.52154 4579 ft 227 kts 188°
2026-05-01 11:34 48.07885 17.51165 4490 ft 223 kts 225°
2026-05-01 11:34 48.06777 17.49527 4433 ft 227 kts 226°
2026-05-01 11:34 48.05620 17.47851 4270 ft 237 kts 226°
2026-05-01 11:34 48.04433 17.46140 4028 ft 235 kts 226°
2026-05-01 11:35 48.03433 17.44313 3772 ft 221 kts 251°
2026-05-01 11:35 48.03390 17.42189 3570 ft 198 kts 296°
2026-05-01 11:35 48.04247 17.40771 3431 ft 178 kts 327°
2026-05-01 11:35 48.05195 17.39624 3236 ft 173 kts 317°
2026-05-01 11:36 48.06026 17.38378 3091 ft 165 kts 316°
2026-05-01 11:36 48.06819 17.37149 2989 ft 168 kts 315°
2026-05-01 11:36 48.07631 17.35882 2780 ft 165 kts 315°
2026-05-01 11:36 48.08398 17.34683 2549 ft 154 kts 316°
2026-05-01 11:37 48.09125 17.33550 2349 ft 150 kts 315°
2026-05-01 11:37 48.09855 17.32412 2156 ft 153 kts 315°
2026-05-01 11:37 48.10569 17.31297 1958 ft 142 kts 316°
2026-05-01 11:37 48.11226 17.30272 1760 ft 135 kts 315°
2026-05-01 11:38 48.11876 17.29260 1561 ft 134 kts 315°
2026-05-01 11:38 48.12520 17.28257 1385 ft 137 kts 314°
2026-05-01 11:38 48.13192 17.27210 1204 ft 142 kts 314°
2026-05-01 11:38 48.13644 17.26504 1074 ft 141 kts 314°
2026-05-01 11:39 48.14315 17.25458 878 ft 137 kts 313°
2026-05-01 11:39 48.14972 17.24448 698 ft 136 kts 312°
2026-05-01 11:39 48.15631 17.23390 522 ft 139 kts 310°
2026-05-01 11:39 48.16300 17.22370 440 ft 131 kts 311°
2026-05-01 11:40 48.16848 17.21517 426 ft 86 kts 314°
2026-05-01 11:40 48.17072 17.21170 424 ft 23 kts 314°
2026-05-01 11:40 48.17134 17.21051 415 ft 11 kts 274°
2026-05-01 11:40 48.17090 17.20959 425 ft 11 kts 225°
2026-05-01 11:41 48.17038 17.20878 427 ft 11 kts 231°
2026-05-01 11:41 48.17061 17.20814 428 ft 7 kts 313°
2026-05-01 11:41 48.17101 17.20750 429 ft 11 kts 313°
2026-05-01 11:41 48.17158 17.20649 419 ft 13 kts 297°
2026-05-01 11:42 48.17136 17.20530 429 ft 13 kts 224°
2026-05-01 11:42 48.17073 17.20438 435 ft 12 kts 224°
2026-05-01 11:42 48.17012 17.20348 429 ft 12 kts 224°
2026-05-01 11:42 48.16952 17.20262 430 ft 10 kts 224°
2026-05-01 11:43 48.16963 17.20210 435 ft 6 kts 314°
2026-05-01 11:43 48.16979 17.20186 433 ft 2 kts 314°
2026-05-01 11:43 48.16983 17.20179 434 ft 0 kts 314°